Location: Key Biscayne
(25.6930°N, 80.1630°W)
Time: 13:50:08
(UTC-04:00)

Hubble Space Telescope - Visible Passes

Search period start: 23 June 2018 00:00
Search period end: 03 July 2018 00:00
Orbit: 537 x 541 km, 28.5° (Epoch: 22 June)

Date Brightness Start Highest point End Pass type
(mag) Time Alt. Az. Time Alt. Az. Time Alt. Az.
23 Jun 2.2 21:38:24 10° W 21:41:45 24° SSW 21:42:43 22° S visible
24 Jun 2.7 21:28:27 10° WSW 21:31:20 18° SSW 21:32:53 15° S visible
25 Jun 3.0 21:18:44 10° WSW 21:20:55 14° SSW 21:23:06 10° S visible
26 Jun 3.3 21:09:53 10° SW 21:10:30 10° SSW 21:11:07 10° SSW visible
